Time,TemperatureF,DewpointF,PressureIn,WindDirection,WindDirectionDegrees,WindSpeedMPH,WindSpeedGustMPH,Humidity,HourlyPrecipIn,Conditions,Clouds,dailyrainin,SolarRadiationWatts/m^2,SoftwareType,DateUTC
2013-01-27 00:04:00,8.1,2.9,30.02,SSE,157,0.0,0.0,79,0.00,-RA,,0.00,0.0,WeatherDisplay:10.37,2013-01-27 06:04:00,
2013-01-27 00:09:00,8.2,3.0,30.02,SSE,158,0.0,0.0,79,0.00,-RA,,0.00,0.0,WeatherDisplay:10.37,2013-01-27 06:09:00,
2013-01-27 00:14:00,8.2,3.0,30.02,SSE,158,0.0,0.0,79,0.00,-RA,,0.00,0.0,WeatherDisplay:10.37,2013-01-27 06:14:00,
2013-01-27 00:19:00,8.2,3.0,30.02,SSE,158,0.0,0.0,79,0.00,-RA,,0.00,0.0,WeatherDisplay:10.37,2013-01-27 06:19:00,
2013-01-27 00:24:00,8.1,2.7,30.02,SSE,158,0.0,0.0,78,0.00,-RA,,0.00,0.0,WeatherDisplay:10.37,2013-01-27 06:24:00,
2013-01-27 00:29:00,8.1,2.7,30.02,SSE,157,0.0,0.0,78,0.00,-RA,,0.00,0.0,WeatherDisplay:10.37,2013-01-27 06:29:00,
2013-01-27 00:34:00,8.0,2.6,30.02,SSE,158,0.0,0.0,78,0.00,-RA,,0.00,0.0,WeatherDisplay:10.37,2013-01-27 06:34:00,
2013-01-27 00:39:00,8.0,2.6,30.01,SSE,157,0.0,0.0,78,0.00,-RA,,0.00,0.0,WeatherDisplay:10.37,2013-01-27 06:39:00,
2013-01-27 00:44:00,7.9,2.5,30.01,SSE,157,0.0,0.0,78,0.00,-RA,,0.00,0.0,WeatherDisplay:10.37,2013-01-27 06:44:00,
2013-01-27 00:49:00,7.7,2.3,30.01,SSE,158,0.0,0.0,78,0.00,-RA,,0.00,0.0,WeatherDisplay:10.37,2013-01-27 06:49:00,
2013-01-27 00:54:00,7.5,2.1,30.00,SSE,158,0.0,0.0,78,0.00,-RA,,0.00,0.0,WeatherDisplay:10.37,2013-01-27 06:54:00,
2013-01-27 00:59:00,7.3,1.6,30.00,SSE,157,0.0,0.0,77,0.00,-RA,,0.00,0.0,WeatherDisplay:10.37,2013-01-27 06:59:00,
2013-01-27 01:04:00,7.1,1.7,30.00,SSE,158,0.0,0.0,78,0.00,-RA,,0.00,0.0,WeatherDisplay:10.37,2013-01-27 07:04:00,
2013-01-27 01:09:00,6.9,1.5,29.99,SSE,157,1.1,1.1,78,0.00,-RA,,0.00,0.0,WeatherDisplay:10.37,2013-01-27 07:09:00,
2013-01-27 01:14:00,6.9,1.8,29.99,SSE,157,0.0,0.0,79,0.00,-RA,,0.00,0.0,WeatherDisplay:10.37,2013-01-27 07:14:00,
2013-01-27 01:19:00,6.8,1.7,29.98,SSE,161,2.3,2.3,79,0.00,-RA,,0.00,0.0,WeatherDisplay:10.37,2013-01-27 07:19:00,
2013-01-27 01:24:00,6.9,2.0,29.98,SSE,153,3.5,3.5,80,0.00,-RA,,0.00,0.0,WeatherDisplay:10.37,2013-01-27 07:24:00,
2013-01-27 01:29:00,6.9,2.0,29.98,SSE,153,2.3,2.3,80,0.00,-RA,,0.00,0.0,WeatherDisplay:10.37,2013-01-27 07:29:00,
2013-01-27 01:34:00,7.1,2.2,29.98,SSE,153,1.1,0.0,80,0.00,-RA,,0.00,0.0,WeatherDisplay:10.37,2013-01-27 07:34:00,
2013-01-27 01:39:00,7.2,2.3,29.98,SSE,153,0.0,0.5,80,0.00,-RA,,0.00,0.0,WeatherDisplay:10.37,2013-01-27 07:39:00,
2013-01-27 01:44:00,7.3,2.7,29.98,SSE,153,0.0,0.0,81,0.00,-RA,,0.00,0.0,WeatherDisplay:10.37,2013-01-27 07:44:00,
2013-01-27 01:49:00,7.4,2.8,29.98,SSE,153,0.0,0.0,81,0.00,-RA,,0.00,0.0,WeatherDisplay:10.37,2013-01-27 07:49:00,
2013-01-27 01:54:00,7.5,2.9,29.98,SSE,153,0.0,0.0,81,0.00,-RA,,0.00,0.0,WeatherDisplay:10.37,2013-01-27 07:54:00,
2013-01-27 01:59:00,7.6,3.0,29.98,SSE,153,0.0,0.0,81,0.00,-RA,,0.00,0.0,WeatherDisplay:10.37,2013-01-27 07:59:00,
2013-01-27 02:04:00,7.6,3.0,29.98,SSE,153,0.0,0.0,81,0.00,-RA,,0.00,0.0,WeatherDisplay:10.37,2013-01-27 08:04:00,
2013-01-27 02:09:00,7.7,3.1,29.98,SSE,153,0.0,0.0,81,0.00,-RA,,0.00,0.0,WeatherDisplay:10.37,2013-01-27 08:09:00,
2013-01-27 02:14:00,7.6,3.0,29.98,SSE,153,0.0,0.0,81,0.00,-RA,,0.00,0.0,WeatherDisplay:10.37,2013-01-27 08:14:00,
2013-01-27 02:19:00,7.7,3.1,29.98,SSE,153,0.0,0.0,81,0.00,-RA,,0.00,0.0,WeatherDisplay:10.37,2013-01-27 08:19:00,
2013-01-27 02:24:00,7.7,3.1,29.99,SSE,153,0.0,0.0,81,0.00,-RA,,0.00,0.0,WeatherDisplay:10.37,2013-01-27 08:24:00,
2013-01-27 02:29:00,7.8,2.9,29.99,SSE,153,0.0,0.0,80,0.00,-RA,,0.00,0.0,WeatherDisplay:10.37,2013-01-27 08:29:00,
2013-01-27 02:34:00,7.8,2.9,29.99,SSE,153,0.0,0.0,80,0.00,-RA,,0.00,0.0,WeatherDisplay:10.37,2013-01-27 08:34:00,
2013-01-27 02:39:00,7.8,3.2,29.99,SSE,153,0.0,0.0,81,0.00,-RA,,0.00,0.0,WeatherDisplay:10.37,2013-01-27 08:39:00,
2013-01-27 02:44:00,7.8,3.2,29.98,SSE,153,0.0,0.0,81,0.00,-RA,,0.00,0.0,WeatherDisplay:10.37,2013-01-27 08:44:00,
2013-01-27 02:49:00,7.7,3.1,29.98,SSE,153,0.0,0.0,81,0.00,-RA,,0.00,0.0,WeatherDisplay:10.37,2013-01-27 08:49:00,
2013-01-27 02:54:00,7.7,3.1,29.98,SSE,153,0.0,0.0,81,0.00,-RA,,0.00,0.0,WeatherDisplay:10.37,2013-01-27 08:54:00,
2013-01-27 02:59:00,7.7,3.1,29.98,SSE,153,0.0,0.0,81,0.00,-RA,,0.00,0.0,WeatherDisplay:10.37,2013-01-27 08:59:00,
2013-01-27 03:04:00,7.6,2.7,29.98,SSE,153,0.0,0.0,80,0.00,-RA,,0.00,0.0,WeatherDisplay:10.37,2013-01-27 09:04:00,
2013-01-27 03:09:00,7.5,2.6,29.98,SSE,153,0.0,0.0,80,0.00,-RA,,0.00,0.0,WeatherDisplay:10.37,2013-01-27 09:09:00,
2013-01-27 03:14:00,7.4,2.5,29.97,SSE,153,0.0,0.0,80,0.00,-RA,,0.00,0.0,WeatherDisplay:10.37,2013-01-27 09:14:00,
2013-01-27 03:19:00,7.3,2.4,29.97,SSE,153,0.0,0.0,80,0.00,-RA,,0.00,0.0,WeatherDisplay:10.37,2013-01-27 09:19:00,
2013-01-27 03:24:00,7.2,2.3,29.96,SSE,153,0.0,0.0,80,0.00,-RA,,0.00,0.0,WeatherDisplay:10.37,2013-01-27 09:24:00,
2013-01-27 03:29:00,7.0,2.1,29.96,SSE,153,0.0,0.0,80,0.00,-RA,,0.00,0.0,WeatherDisplay:10.37,2013-01-27 09:29:00,
2013-01-27 03:34:00,6.9,2.0,29.96,SSE,153,0.0,0.0,80,0.00,-RA,,0.00,0.0,WeatherDisplay:10.37,2013-01-27 09:34:00,
2013-01-27 03:39:00,6.7,1.8,29.96,SSE,153,0.0,0.0,80,0.00,-RA,,0.00,0.0,WeatherDisplay:10.37,2013-01-27 09:39:00,
2013-01-27 03:44:00,6.7,2.1,29.96,SSE,153,0.0,0.0,81,0.00,-RA,,0.00,0.0,WeatherDisplay:10.37,2013-01-27 09:44:00,
2013-01-27 03:49:00,6.6,2.0,29.96,SSE,153,0.0,0.0,81,0.00,-RA,,0.00,0.0,WeatherDisplay:10.37,2013-01-27 09:49:00,
2013-01-27 03:54:00,6.5,1.9,29.96,SSE,153,0.0,0.0,81,0.00,-RA,,0.00,0.0,WeatherDisplay:10.37,2013-01-27 09:54:00,
2013-01-27 03:59:00,6.5,1.9,29.96,SSE,153,0.0,0.0,81,0.00,-RA,,0.00,0.0,WeatherDisplay:10.37,2013-01-27 09:59:00,
2013-01-27 04:04:00,6.4,1.8,29.95,SSE,153,0.0,0.0,81,0.00,-RA,,0.00,0.0,WeatherDisplay:10.37,2013-01-27 10:04:00,
2013-01-27 04:09:00,6.3,1.7,29.95,SSE,153,0.0,0.0,81,0.00,-RA,,0.00,0.0,WeatherDisplay:10.37,2013-01-27 10:09:00,
2013-01-27 04:14:00,6.2,1.6,29.95,SSE,153,0.0,0.0,81,0.00,-RA,,0.00,0.0,WeatherDisplay:10.37,2013-01-27 10:14:00,
2013-01-27 04:19:00,6.1,1.5,29.95,SSE,153,0.0,0.0,81,0.00,-RA,,0.00,0.0,WeatherDisplay:10.37,2013-01-27 10:19:00,
2013-01-27 04:24:00,6.0,1.4,29.95,SSE,153,0.0,0.0,81,0.00,-RA,,0.00,0.0,WeatherDisplay:10.37,2013-01-27 10:24:00,
2013-01-27 04:29:00,5.8,1.2,29.95,SSE,153,0.0,0.0,81,0.00,-RA,,0.00,0.0,WeatherDisplay:10.37,2013-01-27 10:29:00,
2013-01-27 04:34:00,5.6,1.0,29.95,SSE,153,0.0,0.0,81,0.00,-RA,,0.00,0.0,WeatherDisplay:10.37,2013-01-27 10:34:00,
2013-01-27 04:39:00,5.5,0.9,29.95,SSE,153,0.0,0.0,81,0.00,-RA,,0.00,0.0,WeatherDisplay:10.37,2013-01-27 10:39:00,
2013-01-27 04:44:00,5.4,0.8,29.94,SSE,153,0.0,0.0,81,0.00,-RA,,0.00,0.0,WeatherDisplay:10.37,2013-01-27 10:44:00,
2013-01-27 04:49:00,5.2,0.6,29.94,SSE,153,0.0,0.0,81,0.00,-RA,,0.00,0.0,WeatherDisplay:10.37,2013-01-27 10:49:00,
2013-01-27 04:54:00,5.0,0.4,29.94,SSE,153,0.0,0.0,81,0.00,-RA,,0.00,0.0,WeatherDisplay:10.37,2013-01-27 10:54:00,
2013-01-27 04:59:00,4.9,0.3,29.94,SSE,153,0.0,0.0,81,0.00,-RA,,0.00,0.0,WeatherDisplay:10.37,2013-01-27 10:59:00,
2013-01-27 05:04:00,4.7,0.2,29.94,SSE,153,0.0,0.0,81,0.00,-RA,,0.00,0.0,WeatherDisplay:10.37,2013-01-27 11:04:00,
2013-01-27 05:09:00,4.5,0.0,29.94,SSE,153,0.0,0.0,81,0.00,-RA,,0.00,0.0,WeatherDisplay:10.37,2013-01-27 11:09:00,
2013-01-27 05:14:00,4.4,-0.1,29.94,SSE,153,0.0,0.0,81,0.00,-RA,,0.00,0.0,WeatherDisplay:10.37,2013-01-27 11:14:00,
2013-01-27 05:19:00,4.2,-0.3,29.94,SSE,153,0.0,0.0,81,0.00,-RA,,0.00,0.0,WeatherDisplay:10.37,2013-01-27 11:19:00,
2013-01-27 05:24:00,4.1,-0.4,29.93,SSE,153,0.0,0.0,81,0.00,-RA,,0.00,0.0,WeatherDisplay:10.37,2013-01-27 11:24:00,
2013-01-27 05:29:00,4.0,-0.5,29.93,SSE,153,0.0,0.0,81,0.00,-RA,,0.00,0.0,WeatherDisplay:10.37,2013-01-27 11:29:00,
2013-01-27 05:34:00,3.9,-0.6,29.93,SSE,153,0.0,0.0,81,0.00,-RA,,0.00,0.0,WeatherDisplay:10.37,2013-01-27 11:34:00,
2013-01-27 05:39:00,3.8,-0.5,29.93,SSE,153,0.0,0.0,82,0.00,-RA,,0.00,0.0,WeatherDisplay:10.37,2013-01-27 11:39:00,
2013-01-27 05:44:00,3.8,-0.5,29.93,SSE,153,0.0,0.0,82,0.00,-RA,,0.00,0.0,WeatherDisplay:10.37,2013-01-27 11:44:00,
2013-01-27 05:49:00,3.8,-0.5,29.93,SSE,153,0.0,0.0,82,0.00,-RA,,0.00,0.0,WeatherDisplay:10.37,2013-01-27 11:49:00,
2013-01-27 05:54:00,3.8,-0.5,29.93,SSE,153,0.0,0.0,82,0.00,-RA,,0.00,0.0,WeatherDisplay:10.37,2013-01-27 11:54:00,
2013-01-27 05:59:00,3.9,-0.1,29.93,SSE,153,0.0,0.0,83,0.00,-RA,,0.00,0.0,WeatherDisplay:10.37,2013-01-27 11:59:00,
2013-01-27 06:04:00,4.0,0.0,29.92,SSE,153,0.0,0.1,83,0.00,-RA,,0.00,0.0,WeatherDisplay:10.37,2013-01-27 12:04:00,
2013-01-27 06:09:00,4.2,0.4,29.92,SSE,153,0.0,0.0,84,0.00,-RA,,0.00,0.0,WeatherDisplay:10.37,2013-01-27 12:09:00,
2013-01-27 06:15:00,4.4,0.6,29.92,SSE,153,0.0,0.0,84,0.00,-RA,,0.00,0.0,WeatherDisplay:10.37,2013-01-27 12:15:00,
2013-01-27 06:20:00,4.5,0.7,29.93,SSE,153,0.0,0.0,84,0.00,-RA,,0.00,0.0,WeatherDisplay:10.37,2013-01-27 12:20:00,
2013-01-27 06:25:00,4.7,1.2,29.92,SSE,153,0.0,0.0,85,0.00,-RA,,0.00,0.0,WeatherDisplay:10.37,2013-01-27 12:25:00,
2013-01-27 06:30:00,4.8,1.3,29.92,SSE,153,0.0,0.0,85,0.00,-RA,,0.00,0.0,WeatherDisplay:10.37,2013-01-27 12:30:00,
2013-01-27 06:35:00,5.0,1.5,29.92,SSE,153,0.0,0.0,85,0.00,-RA,,0.00,0.0,WeatherDisplay:10.37,2013-01-27 12:35:00,
2013-01-27 06:40:00,5.1,1.6,29.92,SSE,153,0.0,0.0,85,0.00,-RA,,0.00,0.0,WeatherDisplay:10.37,2013-01-27 12:40:00,
2013-01-27 06:45:00,5.2,1.7,29.92,SSE,153,0.0,0.0,85,0.00,-RA,,0.00,0.0,WeatherDisplay:10.37,2013-01-27 12:45:00,
2013-01-27 06:50:00,5.3,1.8,29.92,SSE,153,0.0,0.0,85,0.00,-RA,,0.00,0.0,WeatherDisplay:10.37,2013-01-27 12:50:00,
2013-01-27 06:55:00,5.4,1.9,29.92,SSE,153,0.0,0.0,85,0.00,-RA,,0.00,0.0,WeatherDisplay:10.37,2013-01-27 12:55:00,
2013-01-27 07:00:00,5.4,1.9,29.92,SSE,153,0.0,0.0,85,0.00,-RA,,0.00,0.0,WeatherDisplay:10.37,2013-01-27 13:00:00,
2013-01-27 07:05:00,5.5,2.0,29.92,SSE,153,0.0,0.0,85,0.00,-RA,,0.00,0.0,WeatherDisplay:10.37,2013-01-27 13:05:00,
2013-01-27 07:10:00,5.6,2.1,29.91,SSE,153,0.0,0.0,85,0.00,-RA,,0.00,0.0,WeatherDisplay:10.37,2013-01-27 13:10:00,
2013-01-27 07:15:00,5.7,2.2,29.91,SSE,153,0.0,0.0,85,0.00,-RA,,0.00,0.0,WeatherDisplay:10.37,2013-01-27 13:15:00,
2013-01-27 07:20:00,5.8,2.3,29.91,SSE,153,0.0,0.0,85,0.00,-RA,,0.00,0.0,WeatherDisplay:10.37,2013-01-27 13:20:00,
2013-01-27 07:25:00,5.8,2.3,29.91,SSE,153,0.0,0.0,85,0.00,-RA,,0.00,0.0,WeatherDisplay:10.37,2013-01-27 13:25:00,
2013-01-27 07:30:00,6.0,2.5,29.91,SSE,153,0.0,0.0,85,0.00,-RA,,0.00,0.0,WeatherDisplay:10.37,2013-01-27 13:30:00,
2013-01-27 07:35:00,6.1,2.6,29.91,SSE,153,0.0,0.0,85,0.00,-RA,,0.00,0.0,WeatherDisplay:10.37,2013-01-27 13:35:00,
2013-01-27 07:40:00,6.1,2.6,29.92,SSE,153,0.0,0.0,85,0.00,-RA,,0.00,0.0,WeatherDisplay:10.37,2013-01-27 13:40:00,
2013-01-27 07:45:00,6.2,2.7,29.92,SSE,153,0.0,0.0,85,0.00,-RA,,0.00,0.0,WeatherDisplay:10.37,2013-01-27 13:45:00,
2013-01-27 07:50:00,6.3,2.8,29.92,SSE,153,0.0,0.0,85,0.00,-RA,,0.00,0.0,WeatherDisplay:10.37,2013-01-27 13:50:00,
2013-01-27 07:55:00,6.3,2.8,29.92,SSE,153,0.0,0.0,85,0.00,-RA,,0.00,0.0,WeatherDisplay:10.37,2013-01-27 13:55:00,
2013-01-27 08:00:00,6.4,2.9,29.92,SSE,153,0.0,0.0,85,0.00,-RA,,0.00,5.0,WeatherDisplay:10.37,2013-01-27 14:00:00,
2013-01-27 08:05:00,6.4,2.9,29.92,SSE,153,0.0,0.0,85,0.00,-RA,,0.00,11.0,WeatherDisplay:10.37,2013-01-27 14:05:00,
2013-01-27 08:10:00,6.5,3.0,29.92,SSE,153,0.0,0.0,85,0.00,-RA,,0.00,14.0,WeatherDisplay:10.37,2013-01-27 14:10:00,
2013-01-27 08:15:00,6.5,3.0,29.92,SSE,153,0.0,0.0,85,0.00,-RA,,0.00,21.0,WeatherDisplay:10.37,2013-01-27 14:15:00,
2013-01-27 08:20:00,6.6,3.0,29.92,SSE,153,0.0,0.0,85,0.00,-RA,,0.00,28.0,WeatherDisplay:10.37,2013-01-27 14:20:00,
2013-01-27 08:25:00,6.7,3.4,29.91,SSE,153,0.0,0.0,86,0.00,-RA,,0.00,30.0,WeatherDisplay:10.37,2013-01-27 14:25:00,
2013-01-27 08:30:00,6.8,3.5,29.92,SSE,153,0.0,0.0,86,0.00,-RA,,0.00,35.0,WeatherDisplay:10.37,2013-01-27 14:30:00,
2013-01-27 08:35:00,6.9,3.6,29.92,SSE,153,0.0,0.0,86,0.00,-RA,,0.00,44.0,WeatherDisplay:10.37,2013-01-27 14:35:00,
2013-01-27 08:40:00,7.1,3.8,29.91,SSE,153,0.0,0.0,86,0.00,-RA,,0.00,49.0,WeatherDisplay:10.37,2013-01-27 14:40:00,
2013-01-27 08:45:00,7.3,4.0,29.91,SSE,153,0.0,0.0,86,0.00,-RA,,0.00,56.0,WeatherDisplay:10.37,2013-01-27 14:45:00,
2013-01-27 08:50:00,7.5,4.2,29.91,SSE,153,0.0,0.0,86,0.00,-RA,,0.00,67.0,WeatherDisplay:10.37,2013-01-27 14:50:00,
2013-01-27 08:55:00,7.7,4.4,29.91,SSE,153,0.0,0.0,86,0.00,-RA,,0.00,70.0,WeatherDisplay:10.37,2013-01-27 14:55:00,
2013-01-27 09:00:00,8.1,5.0,29.90,SSE,153,0.0,0.0,87,0.00,-RA,,0.00,76.0,WeatherDisplay:10.37,2013-01-27 15:00:00,
2013-01-27 09:05:00,8.5,5.4,29.90,SSE,153,0.0,0.0,87,0.00,-RA,,0.00,81.0,WeatherDisplay:10.37,2013-01-27 15:05:00,
2013-01-27 09:10:00,8.9,5.8,29.90,SSE,153,0.0,0.0,87,0.00,-RA,,0.00,86.0,WeatherDisplay:10.37,2013-01-27 15:10:00,
2013-01-27 09:15:00,9.4,6.3,29.90,SSE,153,0.0,0.0,87,0.00,-RA,,0.00,93.0,WeatherDisplay:10.37,2013-01-27 15:15:00,
2013-01-27 09:20:00,9.9,6.8,29.90,SSE,153,0.0,0.0,87,0.00,-RA,,0.00,100.0,WeatherDisplay:10.37,2013-01-27 15:20:00,
2013-01-27 09:25:00,10.2,7.1,29.90,SSE,153,0.0,0.0,87,0.00,-RA,,0.00,107.0,WeatherDisplay:10.37,2013-01-27 15:25:00,
2013-01-27 09:30:00,10.7,7.6,29.90,SSE,153,0.0,0.0,87,0.00,-RA,,0.00,121.0,WeatherDisplay:10.37,2013-01-27 15:30:00,
2013-01-27 09:35:00,11.1,8.0,29.90,SSE,153,2.3,0.0,87,0.00,-RA,,0.00,109.0,WeatherDisplay:10.37,2013-01-27 15:35:00,
2013-01-27 09:40:00,11.6,8.2,29.90,SSE,153,0.0,0.0,86,0.00,-RA,,0.00,102.0,WeatherDisplay:10.37,2013-01-27 15:40:00,
2013-01-27 09:45:00,11.9,8.5,29.90,SSE,153,0.0,0.0,86,0.00,-RA,,0.00,111.0,WeatherDisplay:10.37,2013-01-27 15:45:00,
2013-01-27 09:50:00,12.2,8.8,29.90,SSE,153,0.0,0.0,86,0.00,-RA,,0.00,130.0,WeatherDisplay:10.37,2013-01-27 15:50:00,
2013-01-27 09:55:00,12.5,8.8,29.90,SSE,153,0.0,0.0,85,0.00,-RA,,0.00,123.0,WeatherDisplay:10.37,2013-01-27 15:55:00,
2013-01-27 10:00:00,12.9,9.0,29.90,SSE,153,0.0,0.0,84,0.00,-RA,,0.00,151.0,WeatherDisplay:10.37,2013-01-27 16:00:00,
2013-01-27 10:06:00,13.3,9.4,29.89,SSE,153,0.0,0.0,84,0.00,-RA,,0.00,181.0,WeatherDisplay:10.37,2013-01-27 16:06:00,
2013-01-27 10:11:00,13.8,9.9,29.89,SSE,153,0.0,0.0,84,0.00,-RA,,0.00,192.0,WeatherDisplay:10.37,2013-01-27 16:11:00,
2013-01-27 10:16:00,14.2,10.0,29.89,SSE,153,0.0,0.0,83,0.00,-RA,,0.00,169.0,WeatherDisplay:10.37,2013-01-27 16:16:00,
2013-01-27 10:21:00,14.7,10.2,29.89,SSE,153,0.0,0.0,82,0.00,-RA,,0.00,165.0,WeatherDisplay:10.37,2013-01-27 16:21:00,
2013-01-27 10:26:00,15.1,10.6,29.89,SSE,153,0.0,0.0,82,0.00,-RA,,0.00,207.0,WeatherDisplay:10.37,2013-01-27 16:26:00,
2013-01-27 10:31:00,15.5,10.7,29.88,SSE,153,0.0,0.0,81,0.00,-RA,,0.00,218.0,WeatherDisplay:10.37,2013-01-27 16:31:00,
2013-01-27 10:36:00,16.2,11.1,29.88,SSE,153,0.0,0.0,80,0.00,-RA,,0.00,283.0,WeatherDisplay:10.37,2013-01-27 16:36:00,
2013-01-27 10:41:00,17.9,11.9,29.88,SSE,153,0.0,0.0,77,0.00,-RA,,0.00,283.0,WeatherDisplay:10.37,2013-01-27 16:41:00,
2013-01-27 10:46:00,18.9,12.0,29.88,SSE,153,1.1,1.1,74,0.00,-RA,,0.00,278.0,WeatherDisplay:10.37,2013-01-27 16:46:00,
2013-01-27 10:51:00,19.4,12.2,29.88,SSE,153,2.3,2.3,73,0.00,-RA,,0.00,276.0,WeatherDisplay:10.37,2013-01-27 16:51:00,
2013-01-27 10:56:00,19.7,12.4,29.88,SSE,153,0.0,0.0,73,0.00,-RA,,0.00,295.0,WeatherDisplay:10.37,2013-01-27 16:56:00,
2013-01-27 11:01:00,20.2,12.6,29.88,SSE,153,0.0,0.0,72,0.00,-RA,,0.00,290.0,WeatherDisplay:10.37,2013-01-27 17:01:00,
2013-01-27 11:06:00,20.7,12.8,29.88,SSE,154,0.0,0.1,71,0.00,-RA,,0.00,346.0,WeatherDisplay:10.37,2013-01-27 17:06:00,
2013-01-27 11:11:00,20.8,12.9,29.88,SSE,153,3.5,3.5,71,0.00,-RA,,0.00,295.0,WeatherDisplay:10.37,2013-01-27 17:11:00,
2013-01-27 11:16:00,21.0,13.1,29.88,SSE,153,3.5,3.5,71,0.00,-RA,,0.00,336.0,WeatherDisplay:10.37,2013-01-27 17:16:00,
2013-01-27 11:21:00,21.6,13.3,29.88,SSE,153,0.0,0.0,70,0.00,-RA,,0.00,360.0,WeatherDisplay:10.37,2013-01-27 17:21:00,
2013-01-27 11:26:00,22.0,13.7,29.87,SSW,202,2.3,2.3,70,0.00,-RA,,0.00,318.0,WeatherDisplay:10.37,2013-01-27 17:26:00,
2013-01-27 11:31:00,22.2,13.6,29.87,SE,144,3.5,3.5,69,0.00,-RA,,0.00,220.0,WeatherDisplay:10.37,2013-01-27 17:31:00,
2013-01-27 11:36:00,22.3,13.7,29.87,SE,144,0.0,0.0,69,0.00,-RA,,0.00,214.0,WeatherDisplay:10.37,2013-01-27 17:36:00,
2013-01-27 11:41:00,22.1,13.5,29.87,SSE,147,3.0,3.0,69,0.00,-RA,,0.00,255.0,WeatherDisplay:10.37,2013-01-27 17:41:00,
2013-01-27 11:46:00,22.1,13.5,29.86,SSE,153,3.5,3.5,69,0.00,-RA,,0.00,306.0,WeatherDisplay:10.37,2013-01-27 17:46:00,
2013-01-27 11:51:00,22.4,13.8,29.86,South,179,3.5,3.5,69,0.00,-RA,,0.00,343.0,WeatherDisplay:10.37,2013-01-27 17:51:00,
2013-01-27 11:56:00,22.5,13.9,29.86,South,172,3.5,0.0,69,0.00,-RA,,0.00,285.0,WeatherDisplay:10.37,2013-01-27 17:56:00,
2013-01-27 12:01:00,22.8,14.1,29.86,SSE,166,2.3,0.0,69,0.00,-RA,,0.00,359.0,WeatherDisplay:10.37,2013-01-27 18:01:00,
2013-01-27 12:06:00,23.1,14.1,29.86,SSE,161,0.0,0.0,68,0.00,-RA,,0.00,304.0,WeatherDisplay:10.37,2013-01-27 18:06:00,
2013-01-27 12:11:00,23.4,14.4,29.85,SSE,161,0.0,0.0,68,0.00,-RA,,0.00,297.0,WeatherDisplay:10.37,2013-01-27 18:11:00,
2013-01-27 12:16:00,23.6,14.2,29.85,SSE,162,0.0,0.0,67,0.00,-RA,,0.00,278.0,WeatherDisplay:10.37,2013-01-27 18:16:00,
2013-01-27 12:21:00,23.7,14.7,29.85,SSE,162,0.0,0.0,68,0.00,-RA,,0.00,294.0,WeatherDisplay:10.37,2013-01-27 18:21:00,
2013-01-27 12:26:00,23.9,14.5,29.84,SSE,162,0.0,0.0,67,0.00,-RA,,0.00,271.0,WeatherDisplay:10.37,2013-01-27 18:26:00,
2013-01-27 12:31:00,24.0,14.6,29.85,SSE,162,0.0,0.0,67,0.01,-RA,,0.01,264.0,WeatherDisplay:10.37,2013-01-27 18:31:00,
2013-01-27 12:36:00,24.3,14.9,29.84,SSE,162,0.0,0.0,67,0.01,-RA,,0.01,281.0,WeatherDisplay:10.37,2013-01-27 18:36:00,
2013-01-27 12:41:00,24.4,15.0,29.85,SSE,161,3.5,0.0,67,0.01,-RA,,0.01,290.0,WeatherDisplay:10.37,2013-01-27 18:41:00,
2013-01-27 12:46:00,24.8,15.4,29.84,SSE,161,1.0,0.0,67,0.01,-RA,,0.01,332.0,WeatherDisplay:10.37,2013-01-27 18:46:00,
2013-01-27 12:51:00,24.9,15.5,29.84,SSE,160,0.0,0.0,67,0.01,-RA,,0.01,301.0,WeatherDisplay:10.37,2013-01-27 18:51:00,
2013-01-27 12:56:00,24.9,15.1,29.84,SSE,157,3.5,3.5,66,0.01,-RA,,0.01,339.0,WeatherDisplay:10.37,2013-01-27 18:56:00,
2013-01-27 13:01:00,25.0,15.2,29.84,SSE,159,3.5,3.5,66,0.01,-RA,,0.01,278.0,WeatherDisplay:10.37,2013-01-27 19:01:00,
2013-01-27 13:06:00,25.1,15.7,29.84,SSE,157,0.0,0.0,67,0.01,-RA,,0.01,302.0,WeatherDisplay:10.37,2013-01-27 19:06:00,
2013-01-27 13:11:00,25.4,15.6,29.84,SSE,155,2.3,0.0,66,0.01,-RA,,0.01,278.0,WeatherDisplay:10.37,2013-01-27 19:11:00,
2013-01-27 13:16:00,25.2,15.4,29.84,SSE,153,0.0,0.0,66,0.01,-RA,,0.01,302.0,WeatherDisplay:10.37,2013-01-27 19:16:00,
2013-01-27 13:21:00,25.8,16.0,29.84,SSE,153,0.0,0.0,66,0.01,-RA,,0.01,346.0,WeatherDisplay:10.37,2013-01-27 19:21:00,
2013-01-27 13:26:00,26.2,16.4,29.83,SSE,152,0.0,0.0,66,0.01,-RA,,0.01,297.0,WeatherDisplay:10.37,2013-01-27 19:26:00,
2013-01-27 13:31:00,26.0,16.2,29.83,SSW,195,0.0,0.0,66,0.00,-RA,,0.01,265.0,WeatherDisplay:10.37,2013-01-27 19:31:00,
2013-01-27 13:36:00,25.9,15.7,29.83,South,180,0.0,0.0,65,0.00,-RA,,0.01,253.0,WeatherDisplay:10.37,2013-01-27 19:36:00,
2013-01-27 13:41:00,26.0,16.5,29.83,South,176,0.0,0.0,67,0.00,-RA,,0.01,253.0,WeatherDisplay:10.37,2013-01-27 19:41:00,
2013-01-27 13:46:00,25.9,16.1,29.83,SSE,167,2.3,2.3,66,0.00,-RA,,0.01,213.0,WeatherDisplay:10.37,2013-01-27 19:46:00,
2013-01-27 13:51:00,26.1,16.3,29.83,SSE,156,0.0,0.0,66,0.00,-RA,,0.01,227.0,WeatherDisplay:10.37,2013-01-27 19:51:00,
2013-01-27 13:56:00,26.2,16.7,29.83,SSE,155,0.0,0.0,67,0.00,-RA,,0.01,207.0,WeatherDisplay:10.37,2013-01-27 19:56:00,
2013-01-27 14:01:00,26.2,16.4,29.83,SSE,148,0.0,0.0,66,0.00,-RA,,0.01,206.0,WeatherDisplay:10.37,2013-01-27 20:01:00,
2013-01-27 14:06:00,26.2,16.0,29.82,ESE,108,3.5,3.5,65,0.00,-RA,,0.01,243.0,WeatherDisplay:10.37,2013-01-27 20:06:00,
2013-01-27 14:11:00,26.4,16.6,29.82,SE,136,1.1,0.0,66,0.00,-RA,,0.01,227.0,WeatherDisplay:10.37,2013-01-27 20:11:00,
2013-01-27 14:16:00,26.6,16.4,29.82,SE,144,0.0,0.0,65,0.00,-RA,,0.01,209.0,WeatherDisplay:10.37,2013-01-27 20:16:00,
2013-01-27 14:21:00,26.7,16.5,29.82,South,171,1.1,0.0,65,0.00,-RA,,0.01,213.0,WeatherDisplay:10.37,2013-01-27 20:21:00,
2013-01-27 14:26:00,26.9,17.0,29.82,South,171,0.0,0.0,66,0.00,-RA,,0.01,202.0,WeatherDisplay:10.37,2013-01-27 20:26:00,
2013-01-27 14:31:00,26.9,17.0,29.82,SSE,168,1.1,0.0,66,0.00,-RA,,0.01,188.0,WeatherDisplay:10.37,2013-01-27 20:31:00,
2013-01-27 14:36:00,27.2,17.0,29.82,SSE,167,0.0,0.0,65,0.00,-RA,,0.01,169.0,WeatherDisplay:10.37,2013-01-27 20:36:00,
2013-01-27 14:41:00,27.2,17.0,29.82,SSE,165,0.0,0.0,65,0.00,-RA,,0.01,165.0,WeatherDisplay:10.37,2013-01-27 20:41:00,
2013-01-27 14:46:00,27.5,18.0,29.82,SSE,165,0.0,0.0,67,0.00,-RA,,0.01,135.0,WeatherDisplay:10.37,2013-01-27 20:46:00,
2013-01-27 14:51:00,27.7,17.8,29.81,SSE,159,1.0,1.0,66,0.00,-RA,,0.01,130.0,WeatherDisplay:10.37,2013-01-27 20:51:00,
2013-01-27 14:56:00,27.8,17.9,29.81,SSE,159,0.0,0.0,66,0.00,-RA,,0.01,125.0,WeatherDisplay:10.37,2013-01-27 20:56:00,
2013-01-27 15:01:00,27.9,18.0,29.82,SSE,155,0.0,0.0,66,0.00,-RA,,0.01,116.0,WeatherDisplay:10.37,2013-01-27 21:01:00,
2013-01-27 15:06:00,28.1,18.2,29.82,SE,145,3.5,3.5,66,0.00,-RA,,0.01,116.0,WeatherDisplay:10.37,2013-01-27 21:06:00,
2013-01-27 15:11:00,28.2,18.6,29.82,SSE,152,1.0,0.0,67,0.00,-RA,,0.01,107.0,WeatherDisplay:10.37,2013-01-27 21:11:00,
2013-01-27 15:16:00,28.3,18.4,29.81,SSE,152,3.5,3.5,66,0.00,-RA,,0.01,107.0,WeatherDisplay:10.37,2013-01-27 21:16:00,
2013-01-27 15:21:00,28.2,18.3,29.81,South,182,3.5,3.5,66,0.00,-RA,,0.01,114.0,WeatherDisplay:10.37,2013-01-27 21:21:00,
2013-01-27 15:26:00,28.0,18.1,29.81,SSE,152,2.3,2.3,66,0.00,-RA,,0.01,104.0,WeatherDisplay:10.37,2013-01-27 21:26:00,
2013-01-27 15:31:00,27.8,18.3,29.81,SSE,148,0.0,0.3,67,0.00,-RA,,0.01,102.0,WeatherDisplay:10.37,2013-01-27 21:31:00,
2013-01-27 15:36:00,27.7,18.2,29.81,SE,144,2.3,0.0,67,0.00,-RA,,0.01,104.0,WeatherDisplay:10.37,2013-01-27 21:36:00,
2013-01-27 15:41:00,27.7,18.2,29.80,SSE,153,0.0,0.0,67,0.00,-RA,,0.01,98.0,WeatherDisplay:10.37,2013-01-27 21:41:00,
2013-01-27 15:46:00,27.7,18.2,29.80,SSE,149,0.0,0.7,67,0.00,-RA,,0.01,93.0,WeatherDisplay:10.37,2013-01-27 21:46:00,
2013-01-27 15:51:00,27.7,18.2,29.80,SSE,149,3.5,3.5,67,0.00,-RA,,0.01,90.0,WeatherDisplay:10.37,2013-01-27 21:51:00,
2013-01-27 15:56:00,27.7,18.5,29.80,SSE,160,0.0,0.0,68,0.00,-RA,,0.01,84.0,WeatherDisplay:10.37,2013-01-27 21:56:00,
2013-01-27 16:01:00,27.8,18.6,29.80,SSE,163,0.0,0.0,68,0.00,-RA,,0.01,79.0,WeatherDisplay:10.37,2013-01-27 22:01:00,
2013-01-27 16:06:00,27.8,18.6,29.80,SSE,163,0.0,0.0,68,0.00,-RA,,0.01,72.0,WeatherDisplay:10.37,2013-01-27 22:06:00,
2013-01-27 16:11:00,27.9,18.7,29.81,SSE,162,0.0,0.0,68,0.00,-RA,,0.01,63.0,WeatherDisplay:10.37,2013-01-27 22:11:00,
2013-01-27 16:16:00,27.9,18.4,29.80,SSE,162,0.0,0.0,67,0.00,-RA,,0.01,58.0,WeatherDisplay:10.37,2013-01-27 22:16:00,
2013-01-27 16:21:00,27.9,18.4,29.80,SSE,162,0.0,0.0,67,0.00,-RA,,0.01,47.0,WeatherDisplay:10.37,2013-01-27 22:21:00,
2013-01-27 16:26:00,27.9,18.7,29.80,SSE,161,0.0,0.0,68,0.00,-RA,,0.01,40.0,WeatherDisplay:10.37,2013-01-27 22:26:00,
2013-01-27 16:31:00,27.9,18.7,29.80,SSE,162,2.3,2.3,68,0.00,-RA,,0.01,37.0,WeatherDisplay:10.37,2013-01-27 22:31:00,
2013-01-27 16:36:00,27.8,18.6,29.80,SSE,161,0.0,0.0,68,0.00,-RA,,0.01,33.0,WeatherDisplay:10.37,2013-01-27 22:36:00,
2013-01-27 16:41:00,27.8,18.6,29.80,SSE,161,0.0,0.0,68,0.00,-RA,,0.01,30.0,WeatherDisplay:10.37,2013-01-27 22:41:00,
2013-01-27 16:47:00,27.7,18.5,29.80,SSE,161,0.0,0.0,68,0.00,-RA,,0.01,28.0,WeatherDisplay:10.37,2013-01-27 22:47:00,
2013-01-27 16:52:00,27.7,18.5,29.80,SSE,161,0.0,0.0,68,0.00,-RA,,0.01,25.0,WeatherDisplay:10.37,2013-01-27 22:52:00,
2013-01-27 16:57:00,27.6,18.4,29.79,SSE,161,0.0,0.0,68,0.00,-RA,,0.01,16.0,WeatherDisplay:10.37,2013-01-27 22:57:00,
2013-01-27 17:02:00,27.6,18.8,29.80,SSE,161,0.0,0.0,69,0.00,-RA,,0.01,11.0,WeatherDisplay:10.37,2013-01-27 23:02:00,
2013-01-27 17:07:00,27.5,18.7,29.80,SSE,161,0.0,0.0,69,0.00,-RA,,0.01,5.0,WeatherDisplay:10.37,2013-01-27 23:07:00,
2013-01-27 17:12:00,27.4,18.6,29.80,SSE,161,0.0,0.0,69,0.00,-RA,,0.01,0.0,WeatherDisplay:10.37,2013-01-27 23:12:00,
2013-01-27 17:17:00,27.3,18.5,29.80,SSE,161,0.0,0.0,69,0.00,-RA,,0.01,0.0,WeatherDisplay:10.37,2013-01-27 23:17:00,
2013-01-27 17:22:00,27.1,18.3,29.80,SSE,161,0.0,0.0,69,0.00,-RA,,0.01,0.0,WeatherDisplay:10.37,2013-01-27 23:22:00,
2013-01-27 17:27:00,27.0,18.2,29.80,SSE,161,0.0,0.0,69,0.00,-RA,,0.01,0.0,WeatherDisplay:10.37,2013-01-27 23:27:00,
2013-01-27 17:32:00,26.9,18.4,29.80,SSE,161,0.0,0.0,70,0.00,-RA,,0.01,0.0,WeatherDisplay:10.37,2013-01-27 23:32:00,
2013-01-27 17:37:00,26.7,18.2,29.80,SSE,161,0.0,0.0,70,0.00,-RA,,0.01,0.0,WeatherDisplay:10.37,2013-01-27 23:37:00,
2013-01-27 17:42:00,26.6,18.1,29.79,SSE,161,0.0,0.0,70,0.00,-RA,,0.01,0.0,WeatherDisplay:10.37,2013-01-27 23:42:00,
2013-01-27 17:47:00,26.5,18.4,29.79,SSE,161,0.0,0.0,71,0.00,-RA,,0.01,0.0,WeatherDisplay:10.37,2013-01-27 23:47:00,
2013-01-27 17:52:00,26.4,18.3,29.79,SSE,161,0.0,0.0,71,0.00,-RA,,0.01,0.0,WeatherDisplay:10.37,2013-01-27 23:52:00,
2013-01-27 17:57:00,26.4,18.6,29.79,SSE,161,0.0,0.0,72,0.00,-RA,,0.01,0.0,WeatherDisplay:10.37,2013-01-27 23:57:00,
2013-01-27 18:02:00,26.4,18.6,29.79,SSE,161,0.0,0.0,72,0.00,-RA,,0.01,0.0,WeatherDisplay:10.37,2013-01-28 00:02:00,
2013-01-27 18:07:00,26.4,18.6,29.79,SSE,161,0.0,0.0,72,0.00,-RA,,0.01,0.0,WeatherDisplay:10.37,2013-01-28 00:07:00,
2013-01-27 18:12:00,26.4,18.6,29.79,SSE,161,0.0,0.0,72,0.00,-RA,,0.01,0.0,WeatherDisplay:10.37,2013-01-28 00:12:00,
2013-01-27 18:17:00,26.5,18.7,29.79,SSE,161,0.0,0.0,72,0.00,-RA,,0.01,0.0,WeatherDisplay:10.37,2013-01-28 00:17:00,
2013-01-27 18:22:00,26.5,18.7,29.79,SSE,161,0.0,0.0,72,0.00,-RA,,0.01,0.0,WeatherDisplay:10.37,2013-01-28 00:22:00,
2013-01-27 18:27:00,26.5,18.7,29.78,SSE,161,0.0,0.0,72,0.00,-RA,,0.01,0.0,WeatherDisplay:10.37,2013-01-28 00:27:00,
2013-01-27 18:32:00,26.5,18.7,29.78,SSE,161,0.0,0.0,72,0.00,-RA,,0.01,0.0,WeatherDisplay:10.37,2013-01-28 00:32:00,
2013-01-27 18:37:00,26.4,18.6,29.78,SSE,161,0.0,0.0,72,0.00,-RA,,0.01,0.0,WeatherDisplay:10.37,2013-01-28 00:37:00,
2013-01-27 18:42:00,26.4,18.6,29.78,SSE,161,0.0,0.0,72,0.00,-RA,,0.01,0.0,WeatherDisplay:10.37,2013-01-28 00:42:00,
2013-01-27 18:47:00,26.3,18.5,29.78,SSE,161,0.0,0.0,72,0.00,-RA,,0.01,0.0,WeatherDisplay:10.37,2013-01-28 00:47:00,
2013-01-27 18:52:00,26.2,18.4,29.78,SSE,161,0.0,0.0,72,0.00,-RA,,0.01,0.0,WeatherDisplay:10.37,2013-01-28 00:52:00,
2013-01-27 18:57:00,26.2,18.4,29.78,SSE,161,0.0,0.0,72,0.00,-RA,,0.01,0.0,WeatherDisplay:10.37,2013-01-28 00:57:00,
2013-01-27 19:02:00,26.2,18.7,29.79,SSE,161,0.0,0.0,73,0.00,-RA,,0.01,0.0,WeatherDisplay:10.37,2013-01-28 01:02:00,
2013-01-27 19:07:00,26.2,18.7,29.78,SSE,161,0.0,0.0,73,0.00,-RA,,0.01,0.0,WeatherDisplay:10.37,2013-01-28 01:07:00,
2013-01-27 19:12:00,26.2,18.7,29.78,SSE,161,0.0,0.0,73,0.00,-RA,,0.01,0.0,WeatherDisplay:10.37,2013-01-28 01:12:00,
2013-01-27 19:17:00,26.1,18.6,29.78,SSE,161,0.0,0.0,73,0.00,-RA,,0.01,0.0,WeatherDisplay:10.37,2013-01-28 01:17:00,
2013-01-27 19:22:00,26.1,18.6,29.78,SSE,161,0.0,0.0,73,0.00,-RA,,0.01,0.0,WeatherDisplay:10.37,2013-01-28 01:22:00,
2013-01-27 19:27:00,26.0,18.5,29.78,SSE,161,0.0,0.0,73,0.00,-RA,,0.01,0.0,WeatherDisplay:10.37,2013-01-28 01:27:00,
2013-01-27 19:32:00,26.0,18.5,29.78,SSE,161,0.0,0.0,73,0.00,-RA,,0.01,0.0,WeatherDisplay:10.37,2013-01-28 01:32:00,
2013-01-27 19:37:00,26.0,18.5,29.78,SSE,161,0.0,0.0,73,0.00,-RA,,0.01,0.0,WeatherDisplay:10.37,2013-01-28 01:37:00,
2013-01-27 19:42:00,26.0,18.5,29.78,SSE,161,0.0,0.0,73,0.00,-RA,,0.01,0.0,WeatherDisplay:10.37,2013-01-28 01:42:00,
2013-01-27 19:47:00,25.9,18.7,29.78,SSE,161,0.0,0.0,74,0.00,-RA,,0.01,0.0,WeatherDisplay:10.37,2013-01-28 01:47:00,
2013-01-27 19:52:00,25.9,18.7,29.77,SSE,161,0.0,0.0,74,0.00,-RA,,0.01,0.0,WeatherDisplay:10.37,2013-01-28 01:52:00,
2013-01-27 19:57:00,25.9,18.7,29.77,SSE,161,0.0,0.0,74,0.00,-RA,,0.01,0.0,WeatherDisplay:10.37,2013-01-28 01:57:00,
2013-01-27 20:02:00,25.9,19.1,29.77,SSE,161,0.0,0.0,75,0.00,-RA,,0.01,0.0,WeatherDisplay:10.37,2013-01-28 02:02:00,
2013-01-27 20:07:00,25.9,19.1,29.77,SSE,161,0.0,0.0,75,0.00,-RA,,0.01,0.0,WeatherDisplay:10.37,2013-01-28 02:07:00,
2013-01-27 20:12:00,25.9,19.1,29.77,SSE,161,0.0,0.0,75,0.00,-RA,,0.01,0.0,WeatherDisplay:10.37,2013-01-28 02:12:00,
2013-01-27 20:17:00,26.0,19.2,29.77,SSE,161,0.0,0.0,75,0.00,-RA,,0.01,0.0,WeatherDisplay:10.37,2013-01-28 02:17:00,
2013-01-27 20:22:00,26.0,19.5,29.77,SSE,161,0.0,0.0,76,0.00,-RA,,0.01,0.0,WeatherDisplay:10.37,2013-01-28 02:22:00,
2013-01-27 20:27:00,26.1,19.6,29.77,SSE,161,0.0,0.0,76,0.00,-RA,,0.01,0.0,WeatherDisplay:10.37,2013-01-28 02:27:00,
2013-01-27 20:32:00,26.2,19.7,29.77,SSE,161,0.0,0.0,76,0.00,-RA,,0.01,0.0,WeatherDisplay:10.37,2013-01-28 02:32:00,
2013-01-27 20:37:00,26.2,20.0,29.77,SSE,161,0.0,0.0,77,0.00,-RA,,0.01,0.0,WeatherDisplay:10.37,2013-01-28 02:37:00,
2013-01-27 20:42:00,26.2,20.0,29.77,SSE,161,0.0,0.0,77,0.00,-RA,,0.01,0.0,WeatherDisplay:10.37,2013-01-28 02:42:00,
2013-01-27 20:47:00,26.3,20.1,29.77,SSE,161,0.0,0.0,77,0.00,-RA,,0.01,0.0,WeatherDisplay:10.37,2013-01-28 02:47:00,
2013-01-27 20:52:00,26.3,20.1,29.77,SSE,161,0.0,0.0,77,0.00,-RA,,0.01,0.0,WeatherDisplay:10.37,2013-01-28 02:52:00,
2013-01-27 20:57:00,26.4,20.2,29.77,SSE,161,0.0,0.0,77,0.00,-RA,,0.01,0.0,WeatherDisplay:10.37,2013-01-28 02:57:00,
2013-01-27 21:02:00,26.4,20.2,29.77,SSE,161,0.0,0.0,77,0.00,-RA,,0.01,0.0,WeatherDisplay:10.37,2013-01-28 03:02:00,
2013-01-27 21:07:00,26.4,20.2,29.77,SSE,161,0.0,0.0,77,0.00,-RA,,0.01,0.0,WeatherDisplay:10.37,2013-01-28 03:07:00,
2013-01-27 21:12:00,26.5,20.6,29.77,SSE,161,0.0,0.0,78,0.00,-RA,,0.01,0.0,WeatherDisplay:10.37,2013-01-28 03:12:00,
2013-01-27 21:17:00,26.6,20.7,29.77,SSE,161,0.0,0.0,78,0.00,-RA,,0.01,0.0,WeatherDisplay:10.37,2013-01-28 03:17:00,
2013-01-27 21:22:00,26.6,20.7,29.77,SSE,161,0.0,0.0,78,0.00,-RA,,0.01,0.0,WeatherDisplay:10.37,2013-01-28 03:22:00,
2013-01-27 21:27:00,26.6,21.0,29.77,SSE,161,0.0,0.0,79,0.00,-RA,,0.01,0.0,WeatherDisplay:10.37,2013-01-28 03:27:00,
2013-01-27 21:32:00,26.7,21.1,29.76,SSE,161,0.0,0.0,79,0.00,-RA,,0.01,0.0,WeatherDisplay:10.37,2013-01-28 03:32:00,
2013-01-27 21:37:00,26.7,21.1,29.76,SSE,161,0.0,0.0,79,0.00,-RA,,0.01,0.0,WeatherDisplay:10.37,2013-01-28 03:37:00,
2013-01-27 21:42:00,26.8,21.5,29.76,SSE,161,0.0,0.0,80,0.00,-RA,,0.01,0.0,WeatherDisplay:10.37,2013-01-28 03:42:00,
2013-01-27 21:47:00,26.9,21.6,29.76,SSE,161,0.0,0.0,80,0.00,-RA,,0.01,0.0,WeatherDisplay:10.37,2013-01-28 03:47:00,
2013-01-27 21:52:00,26.9,21.6,29.77,SSE,161,0.0,0.0,80,0.00,-RA,,0.01,0.0,WeatherDisplay:10.37,2013-01-28 03:52:00,
2013-01-27 21:57:00,27.0,21.9,29.76,SSE,161,0.0,0.0,81,0.00,-RA,,0.01,0.0,WeatherDisplay:10.37,2013-01-28 03:57:00,
2013-01-27 22:02:00,27.1,22.0,29.77,SSE,161,0.0,0.0,81,0.00,-RA,,0.01,0.0,WeatherDisplay:10.37,2013-01-28 04:02:00,
2013-01-27 22:07:00,27.2,22.1,29.77,SSE,161,0.0,0.0,81,0.00,-RA,,0.01,0.0,WeatherDisplay:10.37,2013-01-28 04:07:00,
2013-01-27 22:12:00,27.2,22.1,29.77,SSE,161,0.0,0.0,81,0.00,-RA,,0.01,0.0,WeatherDisplay:10.37,2013-01-28 04:12:00,
2013-01-27 22:17:00,27.3,22.2,29.77,SSE,161,0.0,0.0,81,0.00,-RA,,0.01,0.0,WeatherDisplay:10.37,2013-01-28 04:17:00,
2013-01-27 22:22:00,27.4,22.3,29.76,SSE,161,0.0,0.0,81,0.00,-RA,,0.01,0.0,WeatherDisplay:10.37,2013-01-28 04:22:00,
2013-01-27 22:27:00,27.4,22.3,29.77,SSE,161,0.0,0.0,81,0.00,-RA,,0.01,0.0,WeatherDisplay:10.37,2013-01-28 04:27:00,
2013-01-27 22:32:00,27.5,22.4,29.77,SSE,161,0.0,0.0,81,0.00,-RA,,0.01,0.0,WeatherDisplay:10.37,2013-01-28 04:32:00,
2013-01-27 22:37:00,27.5,22.4,29.77,SSE,161,0.0,0.0,81,0.00,-RA,,0.01,0.0,WeatherDisplay:10.37,2013-01-28 04:37:00,
2013-01-27 22:42:00,27.5,22.4,29.77,SSE,161,0.0,0.0,81,0.00,-RA,,0.01,0.0,WeatherDisplay:10.37,2013-01-28 04:42:00,
2013-01-27 22:47:00,27.5,22.4,29.77,SSE,161,0.0,0.0,81,0.00,-RA,,0.01,0.0,WeatherDisplay:10.37,2013-01-28 04:47:00,
2013-01-27 22:52:00,27.5,22.4,29.77,SSE,161,0.0,0.0,81,0.00,-RA,,0.01,0.0,WeatherDisplay:10.37,2013-01-28 04:52:00,
2013-01-27 22:57:00,27.5,22.4,29.77,SSE,161,0.0,0.0,81,0.00,-RA,,0.01,0.0,WeatherDisplay:10.37,2013-01-28 04:57:00,
2013-01-27 23:00:00,27.5,22.4,29.77,SSE,161,0.0,0.0,81,0.00,-RA,,0.01,0.0,WeatherDisplay:10.37,2013-01-28 05:00:00,
2013-01-27 23:03:00,27.5,22.4,29.77,SSE,161,0.0,0.0,81,0.00,-RA,,0.01,0.0,WeatherDisplay:10.37,2013-01-28 05:03:00,
2013-01-27 23:08:00,27.4,22.3,29.77,SSE,161,0.0,0.0,81,0.00,-RA,,0.01,0.0,WeatherDisplay:10.37,2013-01-28 05:08:00,
2013-01-27 23:13:00,27.4,22.3,29.77,SSE,161,0.0,0.0,81,0.00,-RA,,0.01,0.0,WeatherDisplay:10.37,2013-01-28 05:13:00,
2013-01-27 23:18:00,27.4,22.3,29.77,SSE,161,0.0,0.0,81,0.00,-RA,,0.01,0.0,WeatherDisplay:10.37,2013-01-28 05:18:00,
2013-01-27 23:23:00,27.3,22.2,29.77,SSE,161,0.0,0.0,81,0.00,-RA,,0.01,0.0,WeatherDisplay:10.37,2013-01-28 05:23:00,
2013-01-27 23:28:00,27.2,22.1,29.77,SSE,161,0.0,0.0,81,0.00,-RA,,0.01,0.0,WeatherDisplay:10.37,2013-01-28 05:28:00,
2013-01-27 23:33:00,27.2,22.1,29.77,SSE,161,0.0,0.0,81,0.00,-RA,,0.01,0.0,WeatherDisplay:10.37,2013-01-28 05:33:00,
2013-01-27 23:38:00,27.1,22.0,29.77,SSE,161,0.0,0.0,81,0.00,-RA,,0.01,0.0,WeatherDisplay:10.37,2013-01-28 05:38:00,
2013-01-27 23:43:00,27.1,22.3,29.77,SSE,161,0.0,0.0,82,0.00,-RA,,0.01,0.0,WeatherDisplay:10.37,2013-01-28 05:43:00,
2013-01-27 23:48:00,27.0,22.2,29.77,SSE,161,0.0,0.0,82,0.00,-RA,,0.01,0.0,WeatherDisplay:10.37,2013-01-28 05:48:00,
2013-01-27 23:53:00,27.0,22.2,29.77,SSE,161,0.0,0.0,82,0.00,-RA,,0.01,0.0,WeatherDisplay:10.37,2013-01-28 05:53:00,
2013-01-27 23:58:00,26.9,22.1,29.76,SSE,161,0.0,0.0,82,0.00,-RA,,0.01,0.0,WeatherDisplay:10.37,2013-01-28 05:58:00,